DMSP 5D-2 F13 DEB, 42278

Orbit data source: Space-Track

DMSP 5D-2 F13 DEB, 42278 is space debris in SSO originally from a launch on Fri, 24 Mar 1995 UTC launched from the Air Force Western Test Range (AFWTR). Debris objects in space refer to the collection of defunct objects orbiting the Earth. Examples of debris include non-operational satellites, rocket bodies, and fragments generated from explosions, collisions, or faulty payload assembly.

Loading next visibility...
Identifier
42278, 1995-015GU
Orbit
SSO
Country
Flag of USUS
Related business
Manufacturer
Unknown
Mission
Spacecraft
Bus & Motor
Unknown
Mass
Unknown
Launch date (UTC)
1995-03-24 (32 years ago)
Launch vehicle
Unknown
Launch site
Air Force Western Test Range (AFWTR)
Object type
Payload
Rocket body
Debris
Shape & HBR
Unknown shape, 0.050 m
Radar Cross Section
Small (<0.1 m²)

Expand to show TLE details & history
Last TLE update: 3 days ago

TLE from 3 days ago
0 DMSP 5D-2 F13 DEB
1 42278U 95015GU  26265.04993608  .00006876  00000-0  14957-2 0  9998
2 42278  98.8721 304.6076 0020810 314.7660  45.1843 14.58212738581824
Epoch: 2026-09-22T01:11Z
TLE epoch observation values (Epoch: 2026-09-22T01:11:54.477Z)
Latitude
-0.00004°
Longitude
-74.29036°
Altitude
691.545 km
Speed
7.516 km/s
True Right ascension
20h 18m 25s
True Declination
0° 00' 00"
Sunlit
Object was in full shadow at epoch
Visualization orbit readout
Latitude
Unknown
Longitude
Unknown
Altitude
Unknown
Speed
Unknown
Apparent Right ascension
Unknown
Apparent Declination
Unknown
Sunlit
N/A
Visualization observer readout
Local Sidereal Time
15:39:20
Azimuth
Unknown
Elevation
Unknown
Doppler factor
Unknown
Orbital elements
Apogee altitude
710.788 km
Perigee altitude
681.345 km
Semi-major axis
7,074.203 km
Eccentricity
0.00208
Inclination
98.8721°
RAAN
304.6076°
Arg. of periapsis
314.766°
True anomaly
45.35377°
Mean anomaly
45.1843°
Eccentric anomaly
45.26901°
Mean motion
3.64776 °/min
Orbital period
98.69 mins
BSTAR
0.0014957

Documentation

Showing up to 5 results
|